Baton Rouge, LA

5:56 PM CST on February 17, 2018 (GMT -0600)
Baton Rouge Metro-Ryan

Weather History for KBTR - April, 2014

Change the Weather History Date:

Saturday, April 26, 2014

  Actual Average Record
Temperature  
Mean Temperature 76 °F 71 °F  
Max Temperature 88 °F 82 °F 89 °F (1963)
Min Temperature 64 °F 60 °F 46 °F (1983)
Degree Days  
Heating Degree Days 0 1  
Month to date heating degree days 51 50  
Since 1 July heating degree days 1978 1552  
Cooling Degree Days 11 6  
Month to date cooling degree days 119 115  
Year to date cooling degree days 165 204  
Growing Degree Days 26 (Base 50)    
Moisture  
Dew Point 62 °F    
Average Humidity 64    
Maximum Humidity 82    
Minimum Humidity 46    
Precipitation  
Precipitation 0.00 in 0.14 in 2.57 in (1907)
Month to date precipitation 3.51 3.91  
Year to date precipitation 16.00 19.08  
Snow  
Snow 0.00 in - - ()
Month to date snowfall 0.0  
Since 1 July snowfall 0.4  
Snow Depth 0.00 in    
Sea Level Pressure  
Sea Level Pressure 29.92 in    
Wind  
Wind Speed 7 mph (ESE)    
Max Wind Speed 15 mph    
Max Gust Speed 21 mph    
Visibility 10 miles    
Events      
T = Trace of Precipitation, MM = Missing Value Source: NWS Daily Summary

Daily Weather History Graph

Daily Weather History Graph

Search for Another Location

Airport or City:

Trip Planner

Search our weather history database for the weather conditions in past years. The results will help you decide how hot, cold, wet, or windy it might be!

Date:

Astronomy

Apr. 26, 2014 Rise Set
Actual Time 6:25 AM CDT 7:39 PM CDT
Civil Twilight 6:00 AM CDT 8:04 PM CDT
Nautical Twilight 5:30 AM CDT 8:34 PM CDT
Astronomical Twilight 4:59 AM CDT 9:06 PM CDT
Moon 4:37 AM CDT (4/26) 5:18 PM CDT (4/26)
Length of Visible Light 14h 04m
Length of Day
13h 13m
Waning Crescent, 8% of the Moon is Illuminated
Apr 26
Waning Crescent
Apr 29
New
May 6
First Quarter
May 14
Full
May 21
Last Quarter

Hourly Weather History & Observations

Time (CDT) Temp. Heat Index Dew Point Humidity Pressure Visibility Wind Dir Wind Speed Gust Speed Precip Events Conditions
12:53 AM 66.0 °F - 55.9 °F 70% 29.96 in 10.0 mi NE 3.5 mph - N/A   Clear
1:44 AM 66.0 °F - 57.0 °F 73% 29.95 in 10.0 mi NE 4.6 mph - N/A   Mostly Cloudy
1:53 AM 64.9 °F - 57.9 °F 78% 29.94 in 10.0 mi ENE 4.6 mph - N/A   Mostly Cloudy
2:23 AM 66.0 °F - 57.0 °F 73% 29.93 in 10.0 mi ENE 4.6 mph - N/A   Scattered Clouds
2:53 AM 66.0 °F - 55.9 °F 70% 29.92 in 10.0 mi Calm Calm - N/A   Clear
3:53 AM 64.0 °F - 57.0 °F 78% 29.92 in 10.0 mi Calm Calm - N/A   Partly Cloudy
4:14 AM 64.9 °F - 55.0 °F 70% 29.92 in 10.0 mi ENE 3.5 mph - N/A   Mostly Cloudy
4:50 AM 64.4 °F - 55.4 °F 73% 29.93 in 10.0 mi Calm Calm - N/A   Scattered Clouds
4:53 AM 64.0 °F - 55.9 °F 75% 29.93 in 10.0 mi ENE 3.5 mph - N/A   Scattered Clouds
5:53 AM 64.0 °F - 55.9 °F 75% 29.94 in 10.0 mi East 3.5 mph - N/A   Scattered Clouds
6:53 AM 64.9 °F - 55.9 °F 73% 29.95 in 10.0 mi ENE 4.6 mph - N/A   Mostly Cloudy
7:53 AM 68.0 °F - 55.9 °F 65% 29.96 in 10.0 mi NE 3.5 mph - N/A   Mostly Cloudy
8:53 AM 71.1 °F - 55.9 °F 59% 29.97 in 10.0 mi East 5.8 mph - N/A   Mostly Cloudy
9:53 AM 73.9 °F - 61.0 °F 64% 29.98 in 10.0 mi East 3.5 mph - N/A   Mostly Cloudy
10:53 AM 79.0 °F - 66.9 °F 66% 29.97 in 10.0 mi SE 5.8 mph - N/A   Scattered Clouds
11:53 AM 84.9 °F 87.1 °F 66.0 °F 53% 29.96 in 8.0 mi SSE 11.5 mph - N/A   Mostly Cloudy
12:53 PM 86.0 °F 87.6 °F 64.9 °F 49% 29.94 in 10.0 mi South 10.4 mph - N/A   Partly Cloudy
1:53 PM 87.1 °F 88.9 °F 64.9 °F 48% 29.92 in 10.0 mi ESE 11.5 mph - N/A   Mostly Cloudy
2:53 PM 87.1 °F 89.2 °F 66.0 °F 49% 29.91 in 10.0 mi South 10.4 mph - N/A   Mostly Cloudy
3:53 PM 86.0 °F 88.2 °F 66.0 °F 51% 29.88 in 10.0 mi SSE 11.5 mph - N/A   Mostly Cloudy
4:53 PM 84.9 °F 87.6 °F 66.9 °F 55% 29.88 in 10.0 mi South 10.4 mph - N/A   Overcast
5:53 PM 84.0 °F 85.4 °F 64.0 °F 51% 29.88 in 10.0 mi South 12.7 mph - N/A   Mostly Cloudy
6:53 PM 82.0 °F 83.8 °F 64.9 °F 56% 29.86 in 10.0 mi SE 8.1 mph - N/A   Scattered Clouds
7:53 PM 81.0 °F 82.7 °F 64.9 °F 58% 29.88 in 10.0 mi SSE 12.7 mph - N/A   Scattered Clouds
8:53 PM 79.0 °F - 66.9 °F 66% 29.89 in 10.0 mi SE 9.2 mph - N/A   Scattered Clouds
9:53 PM 78.1 °F - 68.0 °F 71% 29.90 in 10.0 mi SE 9.2 mph - N/A   Mostly Cloudy
10:53 PM 75.9 °F - 68.0 °F 76% 29.90 in 10.0 mi SE 6.9 mph - N/A   Scattered Clouds
11:31 PM 75.9 °F - 68.0 °F 76% 29.90 in 10.0 mi SE 4.6 mph - N/A   Mostly Cloudy
11:38 PM 75.9 °F - 68.0 °F 76% 29.90 in 10.0 mi SE 4.6 mph - N/A   Scattered Clouds
11:53 PM 75.9 °F - 69.1 °F 79% 29.90 in 10.0 mi SE 5.8 mph - N/A   Overcast